sat.trackr.live / text

‹ back to catalog

STARLINK-36826

NORAD 67885 · 2026-035G

PAYLOAD ACTIVE UNKNOWN

§ Identity

Operator
Country
US
Launch date
2026-02-21
Launch site
AFWTR
Launch vehicle
Mass (kg)
RCS (m²)

Purposes: comms

External: N2YO · Heavens-Above · Gunter

§ Orbital elements

Epoch: 2026-09-19T13:01:35.955264Z

Period
93.91 min
Inclination
97.2844°
Eccentricity
0.0002216
Mean motion
15.33439469 rev/d
Perigee alt
464.0 km
Apogee alt
467.1 km
Semi-major
6,843.7 km
B*
3.0738e-4
RAAN
194.3646°
Arg perigee
88.5328°
Mean anomaly
271.6168°
Rev number
3,369

§ Raw data

STARLINK-368261 67885U 26035G   26262.54277726  .00009860  00000+0  30738-3 0  99942 67885  97.2844 194.3646 0002216  88.5328 271.6168 15.33439469 33697

JSON: /api/v1/satellites/67885 · /tle

For live sub-satellite position, see the globe view (requires WebGL).

§ Visibility from observer

Set your observer location to see the next 7 days of passes ≥ 10°. The values pass through the URL so the page stays shareable.

No JS? Fill the form by hand. The geolocation button needs JavaScript.